Year,Month,Day,Hour,Minute,Value (Times are PST for temperature in C)
2019,11,27,00,00,5.30
2019,11,27,00,01,5.30
2019,11,27,00,02,5.30
2019,11,27,00,03,5.30
2019,11,27,00,04,5.30
2019,11,27,00,05,5.40
2019,11,27,00,06,5.40
2019,11,27,00,07,5.40
2019,11,27,00,08,5.40
2019,11,27,00,09,5.30
2019,11,27,00,10,5.30
2019,11,27,00,11,5.30
2019,11,27,00,12,5.30
2019,11,27,00,13,5.30
2019,11,27,00,14,5.30
2019,11,27,00,15,5.30
2019,11,27,00,16,5.30
2019,11,27,00,17,5.30
2019,11,27,00,18,5.30
2019,11,27,00,19,5.30
2019,11,27,00,20,5.30
2019,11,27,00,21,5.30
2019,11,27,00,22,5.30
2019,11,27,00,23,5.30
2019,11,27,00,24,5.30
2019,11,27,00,25,5.30
2019,11,27,00,26,5.30
2019,11,27,00,27,5.30
2019,11,27,00,28,5.30
2019,11,27,00,29,5.30
2019,11,27,00,30,5.30
2019,11,27,00,31,5.30
2019,11,27,00,32,5.30
2019,11,27,00,33,5.30
2019,11,27,00,34,5.30
2019,11,27,00,35,5.30
2019,11,27,00,36,5.30
2019,11,27,00,37,5.30
2019,11,27,00,38,5.30
2019,11,27,00,39,5.30
2019,11,27,00,40,5.30
2019,11,27,00,41,5.30
2019,11,27,00,42,5.30
2019,11,27,00,43,5.30
2019,11,27,00,44,5.30
2019,11,27,00,45,5.30
2019,11,27,00,46,5.30
2019,11,27,00,47,5.30
2019,11,27,00,48,5.30
2019,11,27,00,49,5.30
2019,11,27,00,50,5.30
2019,11,27,00,51,5.30
2019,11,27,00,52,5.30
2019,11,27,00,53,5.30
2019,11,27,00,54,5.30
2019,11,27,00,55,5.30
2019,11,27,00,56,5.30
2019,11,27,00,57,5.30
2019,11,27,00,58,5.30
2019,11,27,00,59,5.30
2019,11,27,01,00,5.30
2019,11,27,01,01,5.30
2019,11,27,01,02,5.30
2019,11,27,01,03,5.30
2019,11,27,01,04,5.30
2019,11,27,01,05,5.30
2019,11,27,01,06,5.30
2019,11,27,01,07,5.30
2019,11,27,01,08,5.30
2019,11,27,01,09,5.30
2019,11,27,01,10,5.30
2019,11,27,01,11,5.30
2019,11,27,01,12,5.30
2019,11,27,01,13,5.30
2019,11,27,01,14,5.30
2019,11,27,01,15,5.30
2019,11,27,01,16,5.30
2019,11,27,01,17,5.30
2019,11,27,01,18,5.30
2019,11,27,01,19,5.30
2019,11,27,01,20,5.30
2019,11,27,01,21,5.30
2019,11,27,01,22,5.30
2019,11,27,01,23,5.30
2019,11,27,01,24,5.30
2019,11,27,01,25,5.30
2019,11,27,01,26,5.30
2019,11,27,01,27,5.30
2019,11,27,01,28,5.30
2019,11,27,01,29,5.30
2019,11,27,01,30,5.30
2019,11,27,01,31,5.30
2019,11,27,01,32,5.30
2019,11,27,01,33,5.30
2019,11,27,01,34,5.40
2019,11,27,01,35,5.30
2019,11,27,01,36,5.30
2019,11,27,01,37,5.30
2019,11,27,01,38,5.30
2019,11,27,01,39,5.30
2019,11,27,01,40,5.30
2019,11,27,01,41,5.30
2019,11,27,01,42,5.30
2019,11,27,01,43,5.30
2019,11,27,01,44,5.30
2019,11,27,01,45,5.40
2019,11,27,01,46,5.40
2019,11,27,01,47,5.40
2019,11,27,01,48,5.40
2019,11,27,01,49,5.40
2019,11,27,01,50,5.40
2019,11,27,01,51,5.40
2019,11,27,01,52,5.40
2019,11,27,01,53,5.40
2019,11,27,01,54,5.40
2019,11,27,01,55,5.40
2019,11,27,01,56,5.40
2019,11,27,01,57,5.40
2019,11,27,01,58,5.40
2019,11,27,01,59,5.40
2019,11,27,02,00,5.40
2019,11,27,02,01,5.40
2019,11,27,02,02,5.40
2019,11,27,02,03,5.30
2019,11,27,02,04,5.30
2019,11,27,02,05,5.30
2019,11,27,02,06,5.30
2019,11,27,02,07,5.30
2019,11,27,02,08,5.30
2019,11,27,02,09,5.30
2019,11,27,02,10,5.30
2019,11,27,02,11,5.30
2019,11,27,02,12,5.30
2019,11,27,02,13,5.30
2019,11,27,02,14,5.30
2019,11,27,02,15,5.30
2019,11,27,02,16,5.30
2019,11,27,02,17,5.30
2019,11,27,02,18,5.30
2019,11,27,02,19,5.30
2019,11,27,02,20,5.30
2019,11,27,02,21,5.30
2019,11,27,02,22,5.30
2019,11,27,02,23,5.30
2019,11,27,02,24,5.40
2019,11,27,02,25,5.40
2019,11,27,02,26,5.30
2019,11,27,02,27,5.30
2019,11,27,02,28,5.30
2019,11,27,02,29,5.30
2019,11,27,02,30,5.30
2019,11,27,02,31,5.30
2019,11,27,02,32,5.30
2019,11,27,02,33,5.30
2019,11,27,02,34,5.30
2019,11,27,02,35,5.30
2019,11,27,02,36,5.30
2019,11,27,02,37,5.30
2019,11,27,02,38,5.30
2019,11,27,02,39,5.30
2019,11,27,02,40,5.30
2019,11,27,02,41,5.40
2019,11,27,02,42,5.40
2019,11,27,02,43,5.40
2019,11,27,02,44,5.40
2019,11,27,02,45,5.40
2019,11,27,02,46,5.40
2019,11,27,02,47,5.40
2019,11,27,02,48,5.40
2019,11,27,02,49,5.40
2019,11,27,02,50,5.40
2019,11,27,02,51,5.40
2019,11,27,02,52,5.40
2019,11,27,02,53,5.40
2019,11,27,02,54,5.40
2019,11,27,02,55,5.40
2019,11,27,02,56,5.40
2019,11,27,02,57,5.30
2019,11,27,02,58,5.30
2019,11,27,02,59,5.30
2019,11,27,03,00,5.40
2019,11,27,03,01,5.40
2019,11,27,03,02,5.40
2019,11,27,03,03,5.40
2019,11,27,03,04,5.40
2019,11,27,03,05,5.40
2019,11,27,03,06,5.40
2019,11,27,03,07,5.40
2019,11,27,03,08,5.40
2019,11,27,03,09,5.40
2019,11,27,03,10,5.40
2019,11,27,03,11,5.40
2019,11,27,03,12,5.30
2019,11,27,03,13,5.30
2019,11,27,03,14,5.30
2019,11,27,03,15,5.30
2019,11,27,03,16,5.30
2019,11,27,03,17,5.30
2019,11,27,03,18,5.30
2019,11,27,03,19,5.30
2019,11,27,03,20,5.30
2019,11,27,03,21,5.30
2019,11,27,03,22,5.30
2019,11,27,03,23,5.30
2019,11,27,03,24,5.30
2019,11,27,03,25,5.30
2019,11,27,03,26,5.40
2019,11,27,03,27,5.40
2019,11,27,03,28,5.30
2019,11,27,03,29,5.30
2019,11,27,03,30,5.30
2019,11,27,03,31,5.30
2019,11,27,03,32,5.30
2019,11,27,03,33,5.30
2019,11,27,03,34,5.30
2019,11,27,03,35,5.30
2019,11,27,03,36,5.30
2019,11,27,03,37,5.30
2019,11,27,03,38,5.30
2019,11,27,03,39,5.30
2019,11,27,03,40,5.30
2019,11,27,03,41,5.30
2019,11,27,03,42,5.30
2019,11,27,03,43,5.30
2019,11,27,03,44,5.30
2019,11,27,03,45,5.30
2019,11,27,03,46,5.30
2019,11,27,08,35,5.70
2019,11,27,08,36,5.70
2019,11,27,08,37,5.70
2019,11,27,08,38,5.70
2019,11,27,08,39,5.70
2019,11,27,08,40,5.70
2019,11,27,08,41,5.70
2019,11,27,08,42,5.70
2019,11,27,08,43,5.70
2019,11,27,08,44,5.70
2019,11,27,08,45,5.70
2019,11,27,08,46,5.70
2019,11,27,08,47,5.70
2019,11,27,08,48,5.70
2019,11,27,08,49,5.70
2019,11,27,08,50,5.70
2019,11,27,08,51,5.70
2019,11,27,08,52,5.70
2019,11,27,08,53,5.70
2019,11,27,08,54,5.70
2019,11,27,08,55,5.70
2019,11,27,08,56,5.70
2019,11,27,08,57,5.70
2019,11,27,08,58,5.70
2019,11,27,08,59,5.70
2019,11,27,09,00,5.70
2019,11,27,09,01,5.70
2019,11,27,09,02,5.70
2019,11,27,09,03,5.70
2019,11,27,09,04,5.70
2019,11,27,09,05,5.70
2019,11,27,09,06,5.70
2019,11,27,09,07,5.70
2019,11,27,09,08,5.70
2019,11,27,09,09,5.70
2019,11,27,09,10,5.70
2019,11,27,09,11,5.70
2019,11,27,09,12,5.70
2019,11,27,09,13,5.70
2019,11,27,09,14,5.80
2019,11,27,09,15,5.80
2019,11,27,09,16,5.80
2019,11,27,09,17,5.80
2019,11,27,09,18,5.80
2019,11,27,09,19,5.80
2019,11,27,09,20,5.80
2019,11,27,09,21,5.80
2019,11,27,09,22,5.80
2019,11,27,09,23,5.80
2019,11,27,09,24,5.80
2019,11,27,09,25,5.80
2019,11,27,09,26,5.80
2019,11,27,09,27,5.80
2019,11,27,09,28,5.80
2019,11,27,09,29,5.80
2019,11,27,09,30,5.80
2019,11,27,09,31,5.80
2019,11,27,09,32,5.80
2019,11,27,09,33,5.80
2019,11,27,09,34,5.80
2019,11,27,09,35,5.80
2019,11,27,09,36,5.80
2019,11,27,09,37,5.80
2019,11,27,09,38,5.80
2019,11,27,09,39,5.80
2019,11,27,09,40,5.80
2019,11,27,09,41,5.90
2019,11,27,09,42,5.90
2019,11,27,09,43,5.90
2019,11,27,09,44,5.90
2019,11,27,09,45,5.90
2019,11,27,09,46,5.90
2019,11,27,09,47,5.90
2019,11,27,09,48,5.90
2019,11,27,09,49,5.90
2019,11,27,09,50,5.90
2019,11,27,09,51,5.90
2019,11,27,09,52,5.90
2019,11,27,09,53,5.90
2019,11,27,09,54,6.00
2019,11,27,09,55,6.00
2019,11,27,09,56,6.00
2019,11,27,09,57,6.00
2019,11,27,09,58,6.00
2019,11,27,09,59,6.00
2019,11,27,10,00,6.10
2019,11,27,10,01,6.10
2019,11,27,10,02,6.10
2019,11,27,10,03,6.10
2019,11,27,10,04,6.00
2019,11,27,10,05,6.10
2019,11,27,10,06,6.00
2019,11,27,10,07,6.10
2019,11,27,10,08,6.10
2019,11,27,10,09,6.10
2019,11,27,10,10,6.10
2019,11,27,10,11,6.10
2019,11,27,10,12,6.10
2019,11,27,10,13,6.10
2019,11,27,10,14,6.10
2019,11,27,10,15,6.10
2019,11,27,10,16,6.10
2019,11,27,10,17,6.10
2019,11,27,10,18,6.20
2019,11,27,10,19,6.20
2019,11,27,10,20,6.20
2019,11,27,10,21,6.20
2019,11,27,10,22,6.20
2019,11,27,10,23,6.20
2019,11,27,10,24,6.20
2019,11,27,10,25,6.30
2019,11,27,10,26,6.30
2019,11,27,10,27,6.30
2019,11,27,10,28,6.30
2019,11,27,10,29,6.30
2019,11,27,10,30,6.30
2019,11,27,10,31,6.20
2019,11,27,10,32,6.30
2019,11,27,10,33,6.30
2019,11,27,10,34,6.30
2019,11,27,10,35,6.30
2019,11,27,10,36,6.30
2019,11,27,10,37,6.20
2019,11,27,10,38,6.20
2019,11,27,10,39,6.30
2019,11,27,10,40,6.30
2019,11,27,10,41,6.30
2019,11,27,10,42,6.30
2019,11,27,10,43,6.30
2019,11,27,10,44,6.30
2019,11,27,10,45,6.30
2019,11,27,10,46,6.30
2019,11,27,10,47,6.30
2019,11,27,10,48,6.30
2019,11,27,10,49,6.30
2019,11,27,10,50,6.30
2019,11,27,10,51,6.30
2019,11,27,10,52,6.30
2019,11,27,10,53,6.30
2019,11,27,10,54,6.30
2019,11,27,10,55,6.40
2019,11,27,10,56,6.30
2019,11,27,10,57,6.30
2019,11,27,10,58,6.30
2019,11,27,10,59,6.30
2019,11,27,11,00,6.30
2019,11,27,11,01,6.30
2019,11,27,11,02,6.30
2019,11,27,11,03,6.30
2019,11,27,11,04,6.30
2019,11,27,11,05,6.30
2019,11,27,11,06,6.30
2019,11,27,11,07,6.30
2019,11,27,11,08,6.30
2019,11,27,11,09,6.30
2019,11,27,11,10,6.20
2019,11,27,11,11,6.20
2019,11,27,11,12,6.20
2019,11,27,11,13,6.20
2019,11,27,11,14,6.20
2019,11,27,11,15,6.20
2019,11,27,11,16,6.20
2019,11,27,11,17,6.20
2019,11,27,11,18,6.20
2019,11,27,11,19,6.20
2019,11,27,11,20,6.20
2019,11,27,11,21,6.30
2019,11,27,11,22,6.30
2019,11,27,11,23,6.30
2019,11,27,11,24,6.30
2019,11,27,11,25,6.30
2019,11,27,11,26,6.30
2019,11,27,11,27,6.30
2019,11,27,11,28,6.20
2019,11,27,11,29,6.20
2019,11,27,11,30,6.20
2019,11,27,11,31,6.10
2019,11,27,11,32,6.10
2019,11,27,11,33,6.10
2019,11,27,11,34,6.10
2019,11,27,11,35,6.10
2019,11,27,11,36,6.10
2019,11,27,11,37,6.10
2019,11,27,11,38,6.10
2019,11,27,11,39,6.10
2019,11,27,11,40,6.10
2019,11,27,11,41,6.10
2019,11,27,11,42,6.10
2019,11,27,11,43,6.10
2019,11,27,11,44,6.10
2019,11,27,11,45,6.10
2019,11,27,11,46,6.10
2019,11,27,11,47,6.10
2019,11,27,11,48,6.10
2019,11,27,11,49,6.10
2019,11,27,11,50,6.10
2019,11,27,11,51,6.10
2019,11,27,11,52,6.10
2019,11,27,11,53,6.10
2019,11,27,11,54,6.10
2019,11,27,11,55,6.10
2019,11,27,11,56,6.10
2019,11,27,11,57,6.10
2019,11,27,11,58,6.10
2019,11,27,11,59,6.10
2019,11,27,12,00,6.10
2019,11,27,12,01,6.10
2019,11,27,12,02,6.10
2019,11,27,12,03,6.10
2019,11,27,12,04,6.10
2019,11,27,12,05,6.00
2019,11,27,12,06,6.00
2019,11,27,12,07,6.00
2019,11,27,12,08,5.90
2019,11,27,12,09,5.90
2019,11,27,12,10,5.90
2019,11,27,12,11,5.90
2019,11,27,12,12,5.90
2019,11,27,12,13,5.80
2019,11,27,12,14,5.80
2019,11,27,12,15,5.80
2019,11,27,12,16,5.80
2019,11,27,12,17,5.80
2019,11,27,12,18,5.80
2019,11,27,12,19,5.80
2019,11,27,12,20,5.80
2019,11,27,12,21,5.80
2019,11,27,12,22,5.80
2019,11,27,12,23,5.80
2019,11,27,12,24,5.70
2019,11,27,12,25,5.70
2019,11,27,12,26,5.70
2019,11,27,12,27,5.70
2019,11,27,12,28,5.70
2019,11,27,12,29,5.70
2019,11,27,12,30,5.70
2019,11,27,12,31,5.70
2019,11,27,12,32,5.70
2019,11,27,12,33,5.70
2019,11,27,12,34,5.70
2019,11,27,12,35,5.70
2019,11,27,12,36,5.80
2019,11,27,12,37,5.80
2019,11,27,12,38,5.80
2019,11,27,12,39,5.80
2019,11,27,12,40,5.80
2019,11,27,12,41,5.80
2019,11,27,12,42,5.80
2019,11,27,12,43,5.80
2019,11,27,12,44,5.80
2019,11,27,12,45,5.80
2019,11,27,12,46,5.80
2019,11,27,12,47,5.80
2019,11,27,12,48,5.80
2019,11,27,12,49,5.80
2019,11,27,12,50,5.80
2019,11,27,12,51,5.80
2019,11,27,12,52,5.80
2019,11,27,12,53,5.80
2019,11,27,12,54,5.80
2019,11,27,12,55,5.80
2019,11,27,12,56,5.80
2019,11,27,12,57,5.80
2019,11,27,12,58,5.80
2019,11,27,12,59,5.80
2019,11,27,13,00,5.80
2019,11,27,13,01,5.80
2019,11,27,13,02,5.80
2019,11,27,13,03,5.80
2019,11,27,13,04,5.80
2019,11,27,13,05,5.80
2019,11,27,13,06,5.80
2019,11,27,13,07,5.80
2019,11,27,13,08,5.80
2019,11,27,13,09,5.80
2019,11,27,13,10,5.80
2019,11,27,13,11,5.80
2019,11,27,13,12,5.80
2019,11,27,13,13,5.80
2019,11,27,13,14,5.80
2019,11,27,13,15,5.80
2019,11,27,13,16,5.80
2019,11,27,13,17,5.80
2019,11,27,13,18,5.80
2019,11,27,13,19,5.80
2019,11,27,13,20,5.80
2019,11,27,13,21,5.80
2019,11,27,13,22,5.80
2019,11,27,13,23,5.80
2019,11,27,13,24,5.80
2019,11,27,13,25,5.80
2019,11,27,13,26,5.80
2019,11,27,13,27,5.80
2019,11,27,13,28,5.80
2019,11,27,13,29,5.80
2019,11,27,13,30,5.80
2019,11,27,13,31,5.80
2019,11,27,13,32,5.80
2019,11,27,13,33,5.80
2019,11,27,13,34,5.80
2019,11,27,13,35,5.80
2019,11,27,13,36,5.80
2019,11,27,13,37,5.80
2019,11,27,13,38,5.80
2019,11,27,13,39,5.80
2019,11,27,13,40,5.80
2019,11,27,13,41,5.80
2019,11,27,13,42,5.80
2019,11,27,13,43,5.80
2019,11,27,13,44,5.80
2019,11,27,13,45,5.80
2019,11,27,13,46,5.80
2019,11,27,13,47,5.80
2019,11,27,13,48,5.80
2019,11,27,13,49,5.80
2019,11,27,13,50,5.80
2019,11,27,13,51,5.80
2019,11,27,13,52,5.80
2019,11,27,13,53,5.80
2019,11,27,13,54,5.80
2019,11,27,13,55,5.80
2019,11,27,13,56,5.80
2019,11,27,13,57,5.80
2019,11,27,13,58,5.80
2019,11,27,13,59,5.80
2019,11,27,14,00,5.80
2019,11,27,14,01,5.80
2019,11,27,14,02,5.80
2019,11,27,14,03,5.80
2019,11,27,14,04,5.80
2019,11,27,14,05,5.80
2019,11,27,14,06,5.80
2019,11,27,14,07,5.80
2019,11,27,14,08,5.80
2019,11,27,14,09,5.80
2019,11,27,14,10,5.80
2019,11,27,14,11,5.80
2019,11,27,14,12,5.80
2019,11,27,14,13,5.80
2019,11,27,14,14,5.70
2019,11,27,14,15,5.70
2019,11,27,14,16,5.70
2019,11,27,14,17,5.70
2019,11,27,14,18,5.70
2019,11,27,14,19,5.70
2019,11,27,14,20,5.70
2019,11,27,14,21,5.70
2019,11,27,14,22,5.70
2019,11,27,14,23,5.70
2019,11,27,14,24,5.70
2019,11,27,14,25,5.70
2019,11,27,14,26,5.70
2019,11,27,14,27,5.70
2019,11,27,14,28,5.70
2019,11,27,14,29,5.70
2019,11,27,14,30,5.60
2019,11,27,14,31,5.60
2019,11,27,14,32,5.60
2019,11,27,14,33,5.60
2019,11,27,14,34,5.60
2019,11,27,14,35,5.60
2019,11,27,14,36,5.60
2019,11,27,14,37,5.60
2019,11,27,14,38,5.60
2019,11,27,14,39,5.60
2019,11,27,14,40,5.60
2019,11,27,14,41,5.60
2019,11,27,14,42,5.60
2019,11,27,14,43,5.60
2019,11,27,14,44,5.60
2019,11,27,14,45,5.60
2019,11,27,14,46,5.60
2019,11,27,14,47,5.60
2019,11,27,14,48,5.60
2019,11,27,14,49,5.60
2019,11,27,14,50,5.50
2019,11,27,14,51,5.50
2019,11,27,14,52,5.50
2019,11,27,14,53,5.50
2019,11,27,14,54,5.50
2019,11,27,14,55,5.50
2019,11,27,14,56,5.50
2019,11,27,14,57,5.50
2019,11,27,14,58,5.50
2019,11,27,14,59,5.50
2019,11,27,15,00,5.50
2019,11,27,15,01,5.50
2019,11,27,15,02,5.50
2019,11,27,15,03,5.50
2019,11,27,15,04,5.50
2019,11,27,15,05,5.50
2019,11,27,15,06,5.50
2019,11,27,15,07,5.60
2019,11,27,15,08,5.50
2019,11,27,15,09,5.50
2019,11,27,15,10,5.50
2019,11,27,15,11,5.50
2019,11,27,15,12,5.50
2019,11,27,15,13,5.50
2019,11,27,15,14,5.50
2019,11,27,15,15,5.50
2019,11,27,15,16,5.60
2019,11,27,15,17,5.60
2019,11,27,15,18,5.60
2019,11,27,15,19,5.60
2019,11,27,15,20,5.60
2019,11,27,15,21,5.60
2019,11,27,15,22,5.60
2019,11,27,15,23,5.60
2019,11,27,15,24,5.60
2019,11,27,15,25,5.60
2019,11,27,15,26,5.60
2019,11,27,15,27,5.60
2019,11,27,15,28,5.60
2019,11,27,15,29,5.60
2019,11,27,15,30,5.60
2019,11,27,15,31,5.60
2019,11,27,15,32,5.60
2019,11,27,15,33,5.60
2019,11,27,15,34,5.50
2019,11,27,15,35,5.50
2019,11,27,15,36,5.50
2019,11,27,15,37,5.50
2019,11,27,15,38,5.50
2019,11,27,15,39,5.50
2019,11,27,15,40,5.50
2019,11,27,15,41,5.50
2019,11,27,15,42,5.40
2019,11,27,15,43,5.40
2019,11,27,15,44,5.40
2019,11,27,15,45,5.40
2019,11,27,15,46,5.40
2019,11,27,15,47,5.40
2019,11,27,15,48,5.40
2019,11,27,15,49,5.30
2019,11,27,15,50,5.30
2019,11,27,15,51,5.30
2019,11,27,15,52,5.30
2019,11,27,15,53,5.30
2019,11,27,15,54,5.30
2019,11,27,15,55,5.30
2019,11,27,15,56,5.20
2019,11,27,15,57,5.20
2019,11,27,15,58,5.20
2019,11,27,15,59,5.20
2019,11,27,16,00,5.20
2019,11,27,16,01,5.20
2019,11,27,16,02,5.10
2019,11,27,16,03,5.20
2019,11,27,16,04,5.20
2019,11,27,16,05,5.20
2019,11,27,16,06,5.10
2019,11,27,16,07,5.10
2019,11,27,16,08,5.10
2019,11,27,16,09,5.10
2019,11,27,16,10,5.10
2019,11,27,16,11,5.10
2019,11,27,16,12,5.10
2019,11,27,16,13,5.10
2019,11,27,16,14,5.10
2019,11,27,16,15,5.10
2019,11,27,16,16,5.10
2019,11,27,16,17,5.10
2019,11,27,16,18,5.10
2019,11,27,16,19,5.10
2019,11,27,16,20,5.10
2019,11,27,16,21,5.10
2019,11,27,16,22,5.00
2019,11,27,16,23,5.00
2019,11,27,16,24,5.00
2019,11,27,16,25,5.00
2019,11,27,16,26,5.00
2019,11,27,16,27,5.00
2019,11,27,16,28,5.00
2019,11,27,16,29,5.00
2019,11,27,16,30,4.90
2019,11,27,16,31,4.90
2019,11,27,16,32,4.90
2019,11,27,16,33,4.90
2019,11,27,16,34,4.90
2019,11,27,16,35,4.90
2019,11,27,16,36,4.90
2019,11,27,16,37,4.90
2019,11,27,16,38,4.90
2019,11,27,16,39,4.90
2019,11,27,16,40,4.90
2019,11,27,16,41,4.90
2019,11,27,16,42,4.90
2019,11,27,16,43,4.90
2019,11,27,16,44,4.90
2019,11,27,16,45,4.90
2019,11,27,16,46,4.80
2019,11,27,16,47,4.80
2019,11,27,16,48,4.80
2019,11,27,16,49,4.90
2019,11,27,16,50,4.90
2019,11,27,16,51,4.80
2019,11,27,16,52,4.80
2019,11,27,16,53,4.80
2019,11,27,16,54,4.80
2019,11,27,16,55,4.80
2019,11,27,16,56,4.80
2019,11,27,16,57,4.80
2019,11,27,16,58,4.80
2019,11,27,16,59,4.80
2019,11,27,17,00,4.80
2019,11,27,17,01,4.80
2019,11,27,17,02,4.80
2019,11,27,17,03,4.80
2019,11,27,17,04,4.80
2019,11,27,17,05,4.80
2019,11,27,17,06,4.80
2019,11,27,17,07,4.80
2019,11,27,17,08,4.80
2019,11,27,17,09,4.80
2019,11,27,17,10,4.80
2019,11,27,17,11,4.70
2019,11,27,17,12,4.70
2019,11,27,17,13,4.70
2019,11,27,17,14,4.70
2019,11,27,17,15,4.70
2019,11,27,17,16,4.70
2019,11,27,17,17,4.70
2019,11,27,17,18,4.70
2019,11,27,17,19,4.70
2019,11,27,17,20,4.70
2019,11,27,17,21,4.70
2019,11,27,17,22,4.70
2019,11,27,17,23,4.70
2019,11,27,17,24,4.70
2019,11,27,17,25,4.70
2019,11,27,17,26,4.70
2019,11,27,17,27,4.70
2019,11,27,17,28,4.70
2019,11,27,17,29,4.70
2019,11,27,17,30,4.70
2019,11,27,17,31,4.70
2019,11,27,17,32,4.70
2019,11,27,17,33,4.70
2019,11,27,17,34,4.70
2019,11,27,17,35,4.60
2019,11,27,17,36,4.60
2019,11,27,17,37,4.60
2019,11,27,17,38,4.60
2019,11,27,17,39,4.60
2019,11,27,17,40,4.60
2019,11,27,17,41,4.60
2019,11,27,17,42,4.60
2019,11,27,17,43,4.60
2019,11,27,17,44,4.50
2019,11,27,17,45,4.50
2019,11,27,17,46,4.50
2019,11,27,17,47,4.50
2019,11,27,17,48,4.50
2019,11,27,17,49,4.50
2019,11,27,17,50,4.50
2019,11,27,17,51,4.50
2019,11,27,17,52,4.40
2019,11,27,17,53,4.40
2019,11,27,17,54,4.40
2019,11,27,17,55,4.40
2019,11,27,17,56,4.40
2019,11,27,17,57,4.40
2019,11,27,17,58,4.40
2019,11,27,17,59,4.40
2019,11,27,18,00,4.40
2019,11,27,18,01,4.30
2019,11,27,18,02,4.40
2019,11,27,18,03,4.40
2019,11,27,18,04,4.40
2019,11,27,18,05,4.30
2019,11,27,18,06,4.30
2019,11,27,18,07,4.30
2019,11,27,18,08,4.30
2019,11,27,18,09,4.30
2019,11,27,18,10,4.30
2019,11,27,18,11,4.30
2019,11,27,18,12,4.30
2019,11,27,18,13,4.30
2019,11,27,18,14,4.30
2019,11,27,18,15,4.30
2019,11,27,18,16,4.30
2019,11,27,18,17,4.30
2019,11,27,18,18,4.30
2019,11,27,18,19,4.30
2019,11,27,18,20,4.30
2019,11,27,18,21,4.30
2019,11,27,18,22,4.30
2019,11,27,18,23,4.30
2019,11,27,18,24,4.30
2019,11,27,18,25,4.30
2019,11,27,18,26,4.30
2019,11,27,18,27,4.30
2019,11,27,18,28,4.30
2019,11,27,18,29,4.20
2019,11,27,18,30,4.20
2019,11,27,18,31,4.20
2019,11,27,18,32,4.20
2019,11,27,18,33,4.30
2019,11,27,18,34,4.20
2019,11,27,18,35,4.20
2019,11,27,18,36,4.20
2019,11,27,18,37,4.20
2019,11,27,18,38,4.20
2019,11,27,18,39,4.20
2019,11,27,18,40,4.20
2019,11,27,18,41,4.20
2019,11,27,18,42,4.20
2019,11,27,18,43,4.20
2019,11,27,18,44,4.20
2019,11,27,18,45,4.20
2019,11,27,18,46,4.20
2019,11,27,18,47,4.20
2019,11,27,18,48,4.20
2019,11,27,18,49,4.20
2019,11,27,18,50,4.20
2019,11,27,18,51,4.20
2019,11,27,18,52,4.20
2019,11,27,18,53,4.20
2019,11,27,18,54,4.20
2019,11,27,18,55,4.20
2019,11,27,18,56,4.20
2019,11,27,18,57,4.20
2019,11,27,18,58,4.20
2019,11,27,18,59,4.20
2019,11,27,19,00,4.20
2019,11,27,19,01,4.10
2019,11,27,19,02,4.10
2019,11,27,19,03,4.10
2019,11,27,19,04,4.10
2019,11,27,19,05,4.00
2019,11,27,19,06,4.00
2019,11,27,19,07,4.00
2019,11,27,19,08,4.10
2019,11,27,19,09,4.10
2019,11,27,19,10,4.10
2019,11,27,19,11,4.10
2019,11,27,19,12,4.10
2019,11,27,19,13,4.10
2019,11,27,19,14,4.10
2019,11,27,19,15,4.10
2019,11,27,19,16,4.10
2019,11,27,19,17,4.10
2019,11,27,19,18,4.10
2019,11,27,19,19,4.10
2019,11,27,19,20,4.10
2019,11,27,19,21,4.10
2019,11,27,19,22,4.10
2019,11,27,19,23,4.00
2019,11,27,19,24,4.00
2019,11,27,19,25,4.00
2019,11,27,19,26,4.00
2019,11,27,19,27,4.00
2019,11,27,19,28,4.00
2019,11,27,19,29,4.00
2019,11,27,19,30,4.00
2019,11,27,19,31,3.90
2019,11,27,19,32,3.90
2019,11,27,19,33,4.00
2019,11,27,19,34,4.00
2019,11,27,19,35,4.00
2019,11,27,19,36,4.00
2019,11,27,19,37,4.00
2019,11,27,19,38,4.00
2019,11,27,19,39,4.00
2019,11,27,19,40,4.00
2019,11,27,19,41,4.00
2019,11,27,19,42,4.00
2019,11,27,19,43,3.90
2019,11,27,19,44,3.90
2019,11,27,19,45,4.00
2019,11,27,19,46,4.00
2019,11,27,19,47,4.00
2019,11,27,19,48,4.00
2019,11,27,19,49,4.00
2019,11,27,19,50,4.00
2019,11,27,19,51,3.90
2019,11,27,19,52,3.90
2019,11,27,19,53,3.90
2019,11,27,19,54,3.90
2019,11,27,19,55,4.00
2019,11,27,19,56,4.00
2019,11,27,19,57,4.00
2019,11,27,19,58,4.00
2019,11,27,19,59,4.00
2019,11,27,20,00,4.00
2019,11,27,20,01,4.00
2019,11,27,20,02,4.00
2019,11,27,20,03,4.00
2019,11,27,20,04,4.00
2019,11,27,20,05,3.90
2019,11,27,20,06,3.90
2019,11,27,20,07,4.00
2019,11,27,20,08,4.00
2019,11,27,20,09,4.00
2019,11,27,20,10,4.00
2019,11,27,20,11,4.00
2019,11,27,20,12,4.00
2019,11,27,20,13,3.90
2019,11,27,20,14,3.90
2019,11,27,20,15,3.90
2019,11,27,20,16,4.00
2019,11,27,20,17,4.00
2019,11,27,20,18,4.00
2019,11,27,20,19,4.00
2019,11,27,20,20,3.90
2019,11,27,20,21,3.90
2019,11,27,20,22,3.90
2019,11,27,20,23,4.00
2019,11,27,20,24,4.00
2019,11,27,20,25,4.00
2019,11,27,20,26,4.00
2019,11,27,20,27,4.00
2019,11,27,20,28,4.00
2019,11,27,20,29,4.10
2019,11,27,20,30,4.10
2019,11,27,20,31,4.00
2019,11,27,20,32,4.00
2019,11,27,20,33,4.00
2019,11,27,20,34,4.00
2019,11,27,20,35,4.00
2019,11,27,20,36,4.00
2019,11,27,20,37,4.00
2019,11,27,20,38,4.10
2019,11,27,20,39,4.10
2019,11,27,20,40,4.00
2019,11,27,20,41,4.00
2019,11,27,20,42,4.00
2019,11,27,20,43,4.00
2019,11,27,20,44,4.00
2019,11,27,20,45,4.00
2019,11,27,20,46,4.00
2019,11,27,20,47,4.00
2019,11,27,20,48,4.00
2019,11,27,20,49,4.00
2019,11,27,20,50,4.00
2019,11,27,20,51,3.90
2019,11,27,20,52,3.90
2019,11,27,20,53,3.90
2019,11,27,20,54,3.90
2019,11,27,20,55,3.90
2019,11,27,20,56,3.90
2019,11,27,20,57,3.90
2019,11,27,20,58,3.90
2019,11,27,20,59,3.90
2019,11,27,21,00,3.90
2019,11,27,21,01,3.90
2019,11,27,21,02,3.90
2019,11,27,21,03,3.90
2019,11,27,21,04,3.90
2019,11,27,21,05,3.90
2019,11,27,21,06,3.90
2019,11,27,21,07,3.90
2019,11,27,21,08,3.90
2019,11,27,21,09,3.90
2019,11,27,21,10,3.90
2019,11,27,21,11,3.90
2019,11,27,21,12,3.90
2019,11,27,21,13,3.90
2019,11,27,21,14,3.90
2019,11,27,21,15,3.90
2019,11,27,21,16,3.90
2019,11,27,21,17,3.90
2019,11,27,21,18,3.90
2019,11,27,21,19,3.90
2019,11,27,21,20,3.90
2019,11,27,21,21,3.90
2019,11,27,21,22,3.90
2019,11,27,21,23,3.90
2019,11,27,21,24,3.90
2019,11,27,21,25,3.80
2019,11,27,21,26,3.80
2019,11,27,21,27,3.80
2019,11,27,21,28,3.80
2019,11,27,21,29,3.80
2019,11,27,21,30,3.80
2019,11,27,21,31,3.80
2019,11,27,21,32,3.80
2019,11,27,21,33,3.80
2019,11,27,21,34,3.80
2019,11,27,21,35,3.80
2019,11,27,21,36,3.80
2019,11,27,21,37,3.80
2019,11,27,21,38,3.80
2019,11,27,21,39,3.80
2019,11,27,21,40,3.80
2019,11,27,21,41,3.80
2019,11,27,21,42,3.90
2019,11,27,21,43,3.90
2019,11,27,21,44,3.80
2019,11,27,21,45,3.80
2019,11,27,21,46,3.80
2019,11,27,21,47,3.80
2019,11,27,21,48,3.80
2019,11,27,21,49,3.80
2019,11,27,21,50,3.80
2019,11,27,21,51,3.80
2019,11,27,21,52,3.80
2019,11,27,21,53,3.80
2019,11,27,21,54,3.80
2019,11,27,21,55,3.80
2019,11,27,21,56,3.80
2019,11,27,21,57,3.80
2019,11,27,21,58,3.70
2019,11,27,21,59,3.70
2019,11,27,22,00,3.70
2019,11,27,22,01,3.70
2019,11,27,22,02,3.70
2019,11,27,22,03,3.70
2019,11,27,22,04,3.70
2019,11,27,22,05,3.70
2019,11,27,22,06,3.70
2019,11,27,22,07,3.70
2019,11,27,22,08,3.70
2019,11,27,22,09,3.70
2019,11,27,22,10,3.70
2019,11,27,22,11,3.80
2019,11,27,22,12,3.80
2019,11,27,22,13,3.80
2019,11,27,22,14,3.80
2019,11,27,22,15,3.80
2019,11,27,22,16,3.70
2019,11,27,22,17,3.70
2019,11,27,22,18,3.70
2019,11,27,22,19,3.70
2019,11,27,22,20,3.80
2019,11,27,22,21,3.80
2019,11,27,22,22,3.80
2019,11,27,22,23,3.70
2019,11,27,22,24,3.70
2019,11,27,22,25,3.70
2019,11,27,22,26,3.70
2019,11,27,22,27,3.80
2019,11,27,22,28,3.80
2019,11,27,22,29,3.80
2019,11,27,22,30,3.80
2019,11,27,22,31,3.80
2019,11,27,22,32,3.80
2019,11,27,22,33,3.80
2019,11,27,22,34,3.80
2019,11,27,22,35,3.80
2019,11,27,22,36,3.80
2019,11,27,22,37,3.80
2019,11,27,22,38,3.80
2019,11,27,22,39,3.80
2019,11,27,22,40,3.80
2019,11,27,22,41,3.80
2019,11,27,22,42,3.80
2019,11,27,22,43,3.80
2019,11,27,22,44,3.80
2019,11,27,22,45,3.80
2019,11,27,22,46,3.80
2019,11,27,22,47,3.80
2019,11,27,22,48,3.80
2019,11,27,22,49,3.80
2019,11,27,22,50,3.80
2019,11,27,22,51,3.70
2019,11,27,22,52,3.70
2019,11,27,22,53,3.80
2019,11,27,22,54,3.80